Time,TemperatureF,DewpointF,PressureIn,WindDirection,WindDirectionDegrees,WindSpeedMPH,WindSpeedGustMPH,Humidity,HourlyPrecipIn,Conditions,Clouds,dailyrainin,SolarRadiationWatts/m^2,SoftwareType,DateUTC
2013-02-16 00:00:00,17.6,14.4,30.12,NW,319,0.0,0.0,87,0.00,,,0.00,0.0,meteohub,2013-02-16 05:00:00,
2013-02-16 00:05:00,17.6,14.4,30.12,NW,319,0.0,0.0,87,0.00,,,0.00,0.0,meteohub,2013-02-16 05:05:00,
2013-02-16 00:10:00,17.8,14.5,30.12,NW,319,0.0,0.0,87,0.00,,,0.00,0.0,meteohub,2013-02-16 05:10:00,
2013-02-16 00:15:00,17.8,14.5,30.12,NW,319,0.0,0.0,87,0.00,,,0.00,0.0,meteohub,2013-02-16 05:15:00,
2013-02-16 00:20:00,17.8,14.5,30.12,NW,319,0.0,0.0,87,0.00,,,0.00,0.0,meteohub,2013-02-16 05:20:00,
2013-02-16 00:23:00,17.8,14.9,30.12,NW,319,0.0,0.0,88,0.00,,,0.00,0.0,meteohub,2013-02-16 05:23:00,
2013-02-16 00:28:00,17.8,14.9,30.12,NW,319,0.0,0.0,88,0.00,,,0.00,0.0,meteohub,2013-02-16 05:28:00,
2013-02-16 00:33:00,17.8,14.9,30.11,NW,319,0.0,0.0,88,0.00,,,0.00,0.0,meteohub,2013-02-16 05:33:00,
2013-02-16 00:38:00,17.8,14.9,30.11,NW,319,0.0,2.0,88,0.00,,,0.00,0.0,meteohub,2013-02-16 05:38:00,
2013-02-16 00:43:00,18.0,15.1,30.11,NW,319,0.0,2.0,88,0.00,,,0.00,0.0,meteohub,2013-02-16 05:43:00,
2013-02-16 00:48:00,18.0,15.1,30.11,NW,319,0.0,2.0,88,0.00,,,0.00,0.0,meteohub,2013-02-16 05:48:00,
2013-02-16 00:53:00,17.8,14.9,30.10,NW,319,0.0,0.0,88,0.00,,,0.00,0.0,meteohub,2013-02-16 05:53:00,
2013-02-16 00:58:00,17.8,14.9,30.11,NW,319,0.0,0.0,88,0.00,,,0.00,0.0,meteohub,2013-02-16 05:58:00,
2013-02-16 01:03:00,17.8,14.9,30.10,NW,319,0.0,1.0,88,0.00,,,0.00,0.0,meteohub,2013-02-16 06:03:00,
2013-02-16 01:08:00,17.6,14.7,30.10,NW,319,0.0,1.0,88,0.00,,,0.00,0.0,meteohub,2013-02-16 06:08:00,
2013-02-16 01:13:00,17.4,14.5,30.11,NW,319,0.0,0.0,88,0.00,,,0.00,0.0,meteohub,2013-02-16 06:13:00,
2013-02-16 01:18:00,17.4,14.5,30.10,NW,319,0.0,0.0,88,0.00,,,0.00,0.0,meteohub,2013-02-16 06:18:00,
2013-02-16 01:23:00,17.2,14.4,30.10,NW,319,0.0,1.0,88,0.00,,,0.00,0.0,meteohub,2013-02-16 06:23:00,
2013-02-16 01:28:00,17.1,14.2,30.10,NW,319,0.0,1.0,88,0.00,,,0.00,0.0,meteohub,2013-02-16 06:28:00,
2013-02-16 01:33:00,17.1,14.2,30.11,NW,319,0.0,1.0,88,0.00,,,0.00,0.0,meteohub,2013-02-16 06:33:00,
2013-02-16 01:38:00,16.9,14.0,30.10,NW,319,0.0,1.0,88,0.00,,,0.00,0.0,meteohub,2013-02-16 06:38:00,
2013-02-16 01:43:00,16.9,14.0,30.10,NW,319,0.0,2.0,88,0.00,,,0.00,0.0,meteohub,2013-02-16 06:43:00,
2013-02-16 01:48:00,16.7,13.8,30.09,NW,319,0.0,2.0,88,0.00,,,0.00,0.0,meteohub,2013-02-16 06:48:00,
2013-02-16 01:53:00,16.7,14.0,30.09,NW,319,0.0,0.0,89,0.00,,,0.00,0.0,meteohub,2013-02-16 06:53:00,
2013-02-16 01:58:00,16.7,14.0,30.09,NW,319,0.0,0.0,89,0.00,,,0.00,0.0,meteohub,2013-02-16 06:58:00,
2013-02-16 02:03:00,16.5,13.6,30.09,NW,319,0.0,0.0,88,0.00,,,0.00,0.0,meteohub,2013-02-16 07:03:00,
2013-02-16 02:08:00,16.5,13.8,30.09,NW,319,0.0,0.0,89,0.00,,,0.00,0.0,meteohub,2013-02-16 07:08:00,
2013-02-16 02:13:00,16.5,13.8,30.09,NW,319,0.0,0.0,89,0.00,,,0.00,0.0,meteohub,2013-02-16 07:13:00,
2013-02-16 02:18:00,16.5,13.8,30.09,NW,319,0.0,0.0,89,0.00,,,0.00,0.0,meteohub,2013-02-16 07:18:00,
2013-02-16 02:23:00,16.3,13.6,30.08,NW,319,0.0,0.0,89,0.00,,,0.00,0.0,meteohub,2013-02-16 07:23:00,
2013-02-16 02:28:00,16.3,13.6,30.08,NW,319,0.0,0.0,89,0.00,,,0.00,0.0,meteohub,2013-02-16 07:28:00,
2013-02-16 02:33:00,16.3,13.6,30.09,NW,319,1.0,0.0,89,0.00,,,0.00,0.0,meteohub,2013-02-16 07:33:00,
2013-02-16 02:38:00,16.2,13.5,30.09,NW,319,0.0,0.0,89,0.00,,,0.00,0.0,meteohub,2013-02-16 07:38:00,
2013-02-16 02:44:00,16.2,13.5,30.08,NW,319,0.0,1.0,89,0.00,,,0.00,0.0,meteohub,2013-02-16 07:44:00,
2013-02-16 02:49:00,16.0,13.1,30.08,NW,319,0.0,1.0,88,0.00,,,0.00,0.0,meteohub,2013-02-16 07:49:00,
2013-02-16 02:54:00,15.8,13.1,30.08,NW,319,0.0,0.0,89,0.00,,,0.00,0.0,meteohub,2013-02-16 07:54:00,
2013-02-16 02:59:00,15.8,13.1,30.08,NW,319,0.0,0.0,89,0.00,,,0.00,0.0,meteohub,2013-02-16 07:59:00,
2013-02-16 03:04:00,15.8,13.1,30.08,NW,319,0.0,0.0,89,0.00,,,0.00,0.0,meteohub,2013-02-16 08:04:00,
2013-02-16 03:09:00,15.6,12.9,30.08,NW,319,0.0,0.0,89,0.00,,,0.00,0.0,meteohub,2013-02-16 08:09:00,
2013-02-16 03:14:00,15.6,12.9,30.07,NW,319,0.0,0.0,89,0.00,,,0.00,0.0,meteohub,2013-02-16 08:14:00,
2013-02-16 03:19:00,15.6,12.9,30.07,NW,319,0.0,0.0,89,0.00,,,0.00,0.0,meteohub,2013-02-16 08:19:00,
2013-02-16 03:24:00,15.6,12.9,30.08,NW,319,0.0,0.0,89,0.00,,,0.00,0.0,meteohub,2013-02-16 08:24:00,
2013-02-16 03:29:00,15.6,12.9,30.08,NW,319,0.0,0.0,89,0.00,,,0.00,0.0,meteohub,2013-02-16 08:29:00,
2013-02-16 03:34:00,15.6,12.9,30.08,NW,319,0.0,1.0,89,0.00,,,0.00,0.0,meteohub,2013-02-16 08:34:00,
2013-02-16 03:39:00,15.6,12.9,30.07,NW,319,0.0,1.0,89,0.00,,,0.00,0.0,meteohub,2013-02-16 08:39:00,
2013-02-16 03:44:00,15.8,13.1,30.07,NW,319,0.0,1.0,89,0.00,,,0.00,0.0,meteohub,2013-02-16 08:44:00,
2013-02-16 03:49:00,15.8,13.1,30.07,NW,319,0.0,1.0,89,0.00,,,0.00,0.0,meteohub,2013-02-16 08:49:00,
2013-02-16 03:54:00,16.0,13.3,30.06,NW,319,0.0,0.0,89,0.00,,,0.00,0.0,meteohub,2013-02-16 08:54:00,
2013-02-16 03:59:00,16.0,13.3,30.06,NW,319,0.0,0.0,89,0.00,,,0.00,0.0,meteohub,2013-02-16 08:59:00,
2013-02-16 04:04:00,16.0,13.3,30.06,NW,319,0.0,1.0,89,0.00,,,0.00,0.0,meteohub,2013-02-16 09:04:00,
2013-02-16 04:09:00,16.0,13.3,30.06,NW,319,0.0,1.0,89,0.00,,,0.00,0.0,meteohub,2013-02-16 09:09:00,
2013-02-16 04:14:00,16.0,13.3,30.06,NW,319,0.0,1.0,89,0.00,,,0.00,0.0,meteohub,2013-02-16 09:14:00,
2013-02-16 04:19:00,16.0,13.3,30.06,NW,319,0.0,0.0,89,0.00,,,0.00,0.0,meteohub,2013-02-16 09:19:00,
2013-02-16 04:24:00,16.0,13.3,30.06,NW,319,0.0,0.0,89,0.00,,,0.00,0.0,meteohub,2013-02-16 09:24:00,
2013-02-16 04:29:00,16.0,13.3,30.06,NW,319,0.0,0.0,89,0.00,,,0.00,0.0,meteohub,2013-02-16 09:29:00,
2013-02-16 04:34:00,16.0,13.3,30.06,NW,319,0.0,0.0,89,0.00,,,0.00,0.0,meteohub,2013-02-16 09:34:00,
2013-02-16 04:39:00,16.2,13.5,30.06,NW,319,0.0,0.0,89,0.00,,,0.00,0.0,meteohub,2013-02-16 09:39:00,
2013-02-16 04:44:00,16.2,13.5,30.06,NW,319,0.0,0.0,89,0.00,,,0.00,0.0,meteohub,2013-02-16 09:44:00,
2013-02-16 04:49:00,16.2,13.5,30.06,NW,319,0.0,0.0,89,0.00,,,0.00,0.0,meteohub,2013-02-16 09:49:00,
2013-02-16 04:54:00,16.3,13.6,30.06,NW,319,0.0,1.0,89,0.00,,,0.00,0.0,meteohub,2013-02-16 09:54:00,
2013-02-16 04:59:00,16.3,13.6,30.06,NW,319,1.0,2.0,89,0.00,,,0.00,0.0,meteohub,2013-02-16 09:59:00,
2013-02-16 05:04:00,16.5,14.2,30.06,NW,319,0.0,2.0,90,0.00,,,0.00,0.0,meteohub,2013-02-16 10:04:00,
2013-02-16 05:09:00,16.7,14.4,30.06,NW,309,2.0,2.0,90,0.00,,,0.00,0.0,meteohub,2013-02-16 10:09:00,
2013-02-16 05:14:00,16.9,14.5,30.06,NW,309,0.0,2.0,90,0.00,,,0.00,0.0,meteohub,2013-02-16 10:14:00,
2013-02-16 05:19:00,17.1,14.7,30.06,NW,309,1.0,6.0,90,0.00,,,0.00,0.0,meteohub,2013-02-16 10:19:00,
2013-02-16 05:24:00,17.1,14.7,30.06,WNW,292,1.0,6.0,90,0.00,,,0.00,0.0,meteohub,2013-02-16 10:24:00,
2013-02-16 05:29:00,17.1,14.7,30.06,WNW,289,1.0,5.0,90,0.00,,,0.00,0.0,meteohub,2013-02-16 10:29:00,
2013-02-16 05:34:00,17.1,14.7,30.06,WNW,298,1.0,5.0,90,0.00,,,0.00,0.0,meteohub,2013-02-16 10:34:00,
2013-02-16 05:39:00,17.1,14.7,30.05,WNW,302,0.0,7.0,90,0.00,,,0.00,0.0,meteohub,2013-02-16 10:39:00,
2013-02-16 05:44:00,16.9,14.2,30.05,NW,326,4.0,7.0,89,0.00,,,0.00,0.0,meteohub,2013-02-16 10:44:00,
2013-02-16 05:49:00,16.7,14.0,30.05,NW,309,2.0,7.0,89,0.00,,,0.00,0.0,meteohub,2013-02-16 10:49:00,
2013-02-16 05:54:00,16.5,13.8,30.05,NW,316,0.0,7.0,89,0.00,,,0.00,0.0,meteohub,2013-02-16 10:54:00,
2013-02-16 05:59:00,16.3,13.6,30.06,NW,315,0.0,7.0,89,0.00,,,0.00,0.0,meteohub,2013-02-16 10:59:00,
2013-02-16 06:04:00,16.2,13.5,30.06,NW,315,1.0,7.0,89,0.00,,,0.00,0.0,meteohub,2013-02-16 11:04:00,
2013-02-16 06:09:00,16.0,13.1,30.06,WNW,293,4.0,7.0,88,0.00,,,0.00,0.0,meteohub,2013-02-16 11:09:00,
2013-02-16 06:14:00,15.8,12.9,30.06,WNW,296,1.0,6.0,88,0.00,,,0.00,0.0,meteohub,2013-02-16 11:14:00,
2013-02-16 06:19:00,15.6,12.7,30.06,WNW,303,0.0,6.0,88,0.00,,,0.00,0.0,meteohub,2013-02-16 11:19:00,
2013-02-16 06:24:00,15.6,12.7,30.06,NW,313,1.0,6.0,88,0.00,,,0.00,0.0,meteohub,2013-02-16 11:24:00,
2013-02-16 06:29:00,15.4,12.6,30.05,NW,312,1.0,6.0,88,0.00,,,0.00,0.0,meteohub,2013-02-16 11:29:00,
2013-02-16 06:34:00,15.4,12.6,30.05,NW,313,2.0,7.0,88,0.00,,,0.00,0.0,meteohub,2013-02-16 11:34:00,
2013-02-16 06:39:00,15.3,12.4,30.06,WNW,298,1.0,7.0,88,0.00,,,0.00,0.0,meteohub,2013-02-16 11:39:00,
2013-02-16 06:45:00,15.3,12.4,30.06,WNW,301,0.0,7.0,88,0.00,,,0.00,0.0,meteohub,2013-02-16 11:45:00,
2013-02-16 06:50:00,15.3,12.4,30.06,WNW,289,1.0,7.0,88,0.00,,,0.00,0.0,meteohub,2013-02-16 11:50:00,
2013-02-16 06:55:00,15.1,12.2,30.06,WNW,289,0.0,6.0,88,0.00,,,0.00,0.0,meteohub,2013-02-16 11:55:00,
2013-02-16 07:00:00,15.1,12.2,30.06,WNW,289,0.0,5.0,88,0.00,,,0.00,0.0,meteohub,2013-02-16 12:00:00,
2013-02-16 07:05:00,14.9,11.7,30.06,WNW,292,0.0,5.0,87,0.00,,,0.00,0.0,meteohub,2013-02-16 12:05:00,
2013-02-16 07:10:00,14.5,11.3,30.06,WNW,293,0.0,5.0,87,0.00,,,0.00,0.0,meteohub,2013-02-16 12:10:00,
2013-02-16 07:15:00,14.5,11.3,30.06,WNW,293,0.0,4.0,87,0.00,,,0.00,0.0,meteohub,2013-02-16 12:15:00,
2013-02-16 07:20:00,14.4,11.1,30.06,WNW,292,0.0,4.0,87,0.00,,,0.00,0.0,meteohub,2013-02-16 12:20:00,
2013-02-16 07:25:00,14.2,10.9,30.06,WNW,292,0.0,4.0,87,0.00,,,0.00,0.0,meteohub,2013-02-16 12:25:00,
2013-02-16 07:30:00,14.2,10.9,30.06,WNW,292,0.0,5.0,87,0.00,,,0.00,0.0,meteohub,2013-02-16 12:30:00,
2013-02-16 07:35:00,14.0,10.9,30.06,WNW,299,0.0,5.0,87,0.00,,,0.00,0.0,meteohub,2013-02-16 12:35:00,
2013-02-16 07:40:00,14.0,10.9,30.06,WNW,300,1.0,5.0,87,0.00,,,0.00,0.0,meteohub,2013-02-16 12:40:00,
2013-02-16 07:45:00,14.0,10.9,30.06,NW,304,4.0,5.0,87,0.00,,,0.00,0.0,meteohub,2013-02-16 12:45:00,
2013-02-16 07:50:00,14.2,10.9,30.06,NW,312,0.0,5.0,87,0.00,,,0.00,0.0,meteohub,2013-02-16 12:50:00,
2013-02-16 07:55:00,14.2,10.9,30.06,NW,311,0.0,7.0,87,0.00,,,0.00,5.0,meteohub,2013-02-16 12:55:00,
2013-02-16 08:00:00,14.2,10.9,30.07,NW,311,0.0,7.0,87,0.00,,,0.00,9.0,meteohub,2013-02-16 13:00:00,
2013-02-16 08:05:00,14.2,10.9,30.06,NW,312,0.0,7.0,87,0.00,,,0.00,11.0,meteohub,2013-02-16 13:05:00,
2013-02-16 08:10:00,14.2,10.9,30.06,NW,312,0.0,7.0,87,0.00,,,0.00,14.0,meteohub,2013-02-16 13:10:00,
2013-02-16 08:15:00,14.2,10.9,30.06,NW,312,0.0,5.0,87,0.00,,,0.00,21.0,meteohub,2013-02-16 13:15:00,
2013-02-16 08:20:00,14.2,10.9,30.06,NW,312,0.0,5.0,87,0.00,,,0.00,25.0,meteohub,2013-02-16 13:20:00,
2013-02-16 08:25:00,14.4,11.1,30.06,NW,312,0.0,5.0,87,0.00,,,0.00,30.0,meteohub,2013-02-16 13:25:00,
2013-02-16 08:30:00,14.4,11.1,30.07,NW,311,0.0,0.0,87,0.00,,,0.00,35.0,meteohub,2013-02-16 13:30:00,
2013-02-16 08:35:00,14.5,11.1,30.07,NNW,329,0.0,0.0,86,0.00,,,0.00,40.0,meteohub,2013-02-16 13:35:00,
2013-02-16 08:40:00,14.7,11.1,30.07,NW,326,2.0,4.0,85,0.00,,,0.00,51.0,meteohub,2013-02-16 13:40:00,
2013-02-16 08:45:00,14.9,10.9,30.07,NW,322,1.0,4.0,84,0.00,,,0.00,65.0,meteohub,2013-02-16 13:45:00,
2013-02-16 08:50:00,15.1,11.1,30.07,NW,322,0.0,4.0,84,0.00,,,0.00,72.0,meteohub,2013-02-16 13:50:00,
2013-02-16 08:55:00,15.1,10.9,30.07,NW,321,0.0,6.0,83,0.00,,,0.00,91.0,meteohub,2013-02-16 13:55:00,
2013-02-16 09:00:00,15.3,10.8,30.07,NW,320,0.0,6.0,82,0.00,,,0.00,84.0,meteohub,2013-02-16 14:00:00,
2013-02-16 09:05:00,15.6,11.1,30.07,NW,319,0.0,6.0,82,0.00,,,0.00,111.0,meteohub,2013-02-16 14:05:00,
2013-02-16 09:10:00,15.8,10.9,30.07,NW,310,2.0,4.0,81,0.00,,,0.00,137.0,meteohub,2013-02-16 14:10:00,
2013-02-16 09:15:00,16.3,11.5,30.07,WNW,303,0.0,4.0,81,0.00,,,0.00,139.0,meteohub,2013-02-16 14:15:00,
2013-02-16 09:20:00,16.7,11.8,30.07,WNW,303,0.0,6.0,81,0.00,,,0.00,139.0,meteohub,2013-02-16 14:20:00,
2013-02-16 09:25:00,16.9,11.5,30.07,WNW,290,6.0,6.0,79,0.00,,,0.00,188.0,meteohub,2013-02-16 14:25:00,
2013-02-16 09:31:00,16.9,11.5,30.07,WNW,302,0.0,6.0,79,0.00,,,0.00,113.0,meteohub,2013-02-16 14:31:00,
2013-02-16 09:36:00,17.1,12.0,30.07,WNW,302,0.0,9.0,80,0.00,,,0.00,142.0,meteohub,2013-02-16 14:36:00,
2013-02-16 09:41:00,17.4,12.4,30.07,WNW,302,0.0,9.0,80,0.00,,,0.00,216.0,meteohub,2013-02-16 14:41:00,
2013-02-16 09:46:00,18.0,12.2,30.07,NW,307,0.0,9.0,78,0.00,,,0.00,241.0,meteohub,2013-02-16 14:46:00,
2013-02-16 09:51:00,18.5,12.7,30.07,NW,307,0.0,6.0,78,0.00,,,0.00,258.0,meteohub,2013-02-16 14:51:00,
2013-02-16 09:56:00,18.3,12.4,30.06,NW,317,4.0,6.0,77,0.00,,,0.00,207.0,meteohub,2013-02-16 14:56:00,
2013-02-16 10:01:00,18.0,12.0,30.07,WNW,298,4.0,8.0,77,0.00,,,0.00,360.0,meteohub,2013-02-16 15:01:00,
2013-02-16 10:06:00,17.8,11.8,30.07,NW,304,0.0,8.0,77,0.00,,,0.00,260.0,meteohub,2013-02-16 15:06:00,
2013-02-16 10:11:00,18.3,12.6,30.07,NW,317,0.0,8.0,78,0.00,,,0.00,204.0,meteohub,2013-02-16 15:11:00,
2013-02-16 10:16:00,18.0,12.0,30.07,NW,326,0.0,9.0,77,0.00,,,0.00,302.0,meteohub,2013-02-16 15:16:00,
2013-02-16 10:21:00,18.0,12.2,30.07,NW,323,4.0,9.0,78,0.00,,,0.00,223.0,meteohub,2013-02-16 15:21:00,
2013-02-16 10:26:00,18.0,12.2,30.07,NW,318,0.0,9.0,78,0.00,,,0.00,193.0,meteohub,2013-02-16 15:26:00,
2013-02-16 10:31:00,18.1,12.4,30.08,NW,318,0.0,7.0,78,0.00,,,0.00,202.0,meteohub,2013-02-16 15:31:00,
2013-02-16 10:36:00,17.8,11.8,30.08,NW,312,0.0,7.0,77,0.00,,,0.00,200.0,meteohub,2013-02-16 15:36:00,
2013-02-16 10:41:00,18.0,12.0,30.08,WNW,302,2.0,7.0,77,0.00,,,0.00,193.0,meteohub,2013-02-16 15:41:00,
2013-02-16 10:46:00,17.8,12.0,30.08,WNW,297,1.0,7.0,78,0.00,,,0.00,239.0,meteohub,2013-02-16 15:46:00,
2013-02-16 10:51:00,18.0,12.6,30.08,NW,311,0.0,7.0,79,0.00,,,0.00,225.0,meteohub,2013-02-16 15:51:00,
2013-02-16 10:56:00,18.0,12.2,30.07,NW,309,1.0,11.0,78,0.00,,,0.00,265.0,meteohub,2013-02-16 15:56:00,
2013-02-16 11:01:00,18.3,12.9,30.07,NW,307,0.0,7.0,79,0.00,,,0.00,267.0,meteohub,2013-02-16 16:01:00,
2013-02-16 11:06:00,18.3,12.9,30.07,NW,307,0.0,7.0,79,0.00,,,0.00,320.0,meteohub,2013-02-16 16:06:00,
2013-02-16 11:11:00,19.0,13.3,30.07,NW,315,0.0,7.0,78,0.00,,,0.00,283.0,meteohub,2013-02-16 16:11:00,
2013-02-16 11:16:00,18.9,13.1,30.07,NW,314,0.0,6.0,78,0.00,,,0.00,309.0,meteohub,2013-02-16 16:16:00,
2013-02-16 11:21:00,19.0,13.6,30.07,NW,314,0.0,6.0,79,0.00,,,0.00,327.0,meteohub,2013-02-16 16:21:00,
2013-02-16 11:26:00,19.0,13.6,30.07,NW,315,1.0,6.0,79,0.00,,,0.00,380.0,meteohub,2013-02-16 16:26:00,
2013-02-16 11:31:00,18.9,12.9,30.07,NW,308,0.0,6.0,77,0.00,,,0.00,352.0,meteohub,2013-02-16 16:31:00,
2013-02-16 11:36:00,19.9,14.7,30.07,NW,307,0.0,5.0,80,0.00,,,0.00,476.0,meteohub,2013-02-16 16:36:00,
2013-02-16 11:41:00,19.8,13.5,30.07,NW,310,2.0,6.0,76,0.01,,,0.00,325.0,meteohub,2013-02-16 16:41:00,
2013-02-16 11:46:00,19.6,13.3,30.07,NW,311,1.0,6.0,76,0.01,,,0.00,411.0,meteohub,2013-02-16 16:46:00,
2013-02-16 11:51:00,19.6,13.3,30.07,NW,311,2.0,6.0,76,0.01,,,0.01,376.0,meteohub,2013-02-16 16:51:00,
2013-02-16 11:56:00,19.4,13.1,30.07,NW,313,1.0,7.0,76,0.01,,,0.01,294.0,meteohub,2013-02-16 16:56:00,
2013-02-16 12:01:00,19.8,13.6,30.07,NW,309,0.0,8.0,77,0.01,,,0.01,350.0,meteohub,2013-02-16 17:01:00,
2013-02-16 12:06:00,19.8,13.6,30.07,NW,324,4.0,8.0,77,0.01,,,0.01,468.0,meteohub,2013-02-16 17:06:00,
2013-02-16 12:11:00,19.8,13.5,30.06,NW,323,1.0,8.0,76,0.01,,,0.01,234.0,meteohub,2013-02-16 17:11:00,
2013-02-16 12:16:00,19.0,12.2,30.07,NNW,327,0.0,7.0,74,0.01,,,0.01,295.0,meteohub,2013-02-16 17:16:00,
2013-02-16 12:21:00,20.1,13.5,30.07,NW,323,0.0,7.0,75,0.01,,,0.01,325.0,meteohub,2013-02-16 17:21:00,
2013-02-16 12:26:00,19.8,13.6,30.06,NW,316,1.0,7.0,77,0.01,,,0.01,211.0,meteohub,2013-02-16 17:26:00,
2013-02-16 12:31:00,19.0,13.3,30.07,WNW,292,2.0,7.0,78,0.01,,,0.01,269.0,meteohub,2013-02-16 17:31:00,
2013-02-16 12:36:00,19.0,13.6,30.07,WNW,282,0.0,7.0,79,0.01,,,0.01,339.0,meteohub,2013-02-16 17:36:00,
2013-02-16 12:41:00,19.6,13.6,30.06,West,273,4.0,7.0,77,0.00,,,0.01,202.0,meteohub,2013-02-16 17:41:00,
2013-02-16 12:46:00,18.9,13.1,30.06,WNW,284,4.0,7.0,78,0.00,,,0.01,251.0,meteohub,2013-02-16 17:46:00,
2013-02-16 12:51:00,18.9,13.1,30.06,WNW,296,0.0,7.0,78,0.00,,,0.01,260.0,meteohub,2013-02-16 17:51:00,
2013-02-16 12:56:00,18.9,13.1,30.06,WNW,284,0.0,9.0,78,0.00,,,0.01,308.0,meteohub,2013-02-16 17:56:00,
2013-02-16 13:01:00,19.4,13.5,30.05,WNW,289,4.0,9.0,77,0.00,,,0.01,341.0,meteohub,2013-02-16 18:01:00,
2013-02-16 13:06:00,19.4,11.5,30.05,WNW,282,2.0,9.0,71,0.00,,,0.01,343.0,meteohub,2013-02-16 18:06:00,
2013-02-16 13:11:00,19.8,12.2,30.05,WNW,284,0.0,9.0,72,0.00,,,0.01,517.0,meteohub,2013-02-16 18:11:00,
2013-02-16 13:16:00,20.1,12.9,30.05,NW,304,0.0,9.0,73,0.00,,,0.01,188.0,meteohub,2013-02-16 18:16:00,
2013-02-16 13:21:00,19.2,12.4,30.05,West,276,4.0,9.0,74,0.00,,,0.01,162.0,meteohub,2013-02-16 18:21:00,
2013-02-16 13:26:00,19.0,12.4,30.05,WNW,291,0.0,9.0,75,0.00,,,0.01,209.0,meteohub,2013-02-16 18:26:00,
2013-02-16 13:31:00,19.2,12.4,30.05,NW,318,6.0,8.0,74,0.00,,,0.01,258.0,meteohub,2013-02-16 18:31:00,
2013-02-16 13:36:00,19.8,12.7,30.05,NW,321,2.0,8.0,74,0.00,,,0.01,355.0,meteohub,2013-02-16 18:36:00,
2013-02-16 13:41:00,19.8,12.7,30.05,NW,317,0.0,11.0,74,0.00,,,0.01,255.0,meteohub,2013-02-16 18:41:00,
2013-02-16 13:46:00,19.4,12.7,30.05,NW,320,2.0,11.0,75,0.00,,,0.01,160.0,meteohub,2013-02-16 18:46:00,
2013-02-16 13:51:00,18.5,12.6,30.05,NW,321,0.0,11.0,77,0.00,,,0.01,141.0,meteohub,2013-02-16 18:51:00,
2013-02-16 13:56:00,18.1,13.1,30.05,NNW,330,0.0,11.0,80,0.00,,,0.01,183.0,meteohub,2013-02-16 18:56:00,
2013-02-16 14:01:00,18.1,13.3,30.05,NNW,330,0.0,9.0,81,0.00,,,0.01,257.0,meteohub,2013-02-16 19:01:00,
2013-02-16 14:07:00,18.1,13.1,30.05,NNW,330,0.0,9.0,80,0.00,,,0.01,264.0,meteohub,2013-02-16 19:07:00,
2013-02-16 14:11:00,18.0,12.0,30.05,NNW,330,0.0,9.0,77,0.00,,,0.01,229.0,meteohub,2013-02-16 19:11:00,
2013-02-16 14:17:00,18.9,12.2,30.05,NNW,330,0.0,0.0,75,0.00,,,0.01,193.0,meteohub,2013-02-16 19:17:00,
2013-02-16 14:22:00,19.0,11.8,30.05,NW,318,1.0,0.0,73,0.00,,,0.01,169.0,meteohub,2013-02-16 19:22:00,
2013-02-16 14:27:00,19.0,11.8,30.04,WNW,294,2.0,0.0,73,0.00,,,0.01,169.0,meteohub,2013-02-16 19:27:00,
2013-02-16 14:32:00,18.5,11.8,30.04,WNW,294,0.0,6.0,75,0.00,,,0.01,193.0,meteohub,2013-02-16 19:32:00,
2013-02-16 14:37:00,18.5,11.7,30.04,WNW,294,0.0,6.0,74,0.00,,,0.01,251.0,meteohub,2013-02-16 19:37:00,
2013-02-16 14:42:00,19.4,10.2,30.04,WNW,294,0.0,5.0,67,0.00,,,0.01,320.0,meteohub,2013-02-16 19:42:00,
2013-02-16 14:47:00,19.9,10.4,30.04,WNW,294,0.0,5.0,66,0.00,,,0.01,216.0,meteohub,2013-02-16 19:47:00,
2013-02-16 14:52:00,20.1,10.2,30.04,WNW,294,0.0,2.0,65,0.00,,,0.01,151.0,meteohub,2013-02-16 19:52:00,
2013-02-16 14:57:00,20.1,9.9,30.04,WNW,294,0.0,2.0,64,0.00,,,0.01,134.0,meteohub,2013-02-16 19:57:00,
2013-02-16 15:02:00,20.1,9.9,30.04,WNW,294,0.0,4.0,64,0.00,,,0.01,123.0,meteohub,2013-02-16 20:02:00,
2013-02-16 15:07:00,19.8,10.2,30.04,WNW,294,0.0,4.0,66,0.00,,,0.01,100.0,meteohub,2013-02-16 20:07:00,
2013-02-16 15:12:00,19.8,10.2,30.04,WNW,294,0.0,4.0,66,0.00,,,0.01,84.0,meteohub,2013-02-16 20:12:00,
2013-02-16 15:17:00,19.9,11.1,30.04,WNW,296,0.0,2.0,68,0.00,,,0.01,74.0,meteohub,2013-02-16 20:17:00,
2013-02-16 15:22:00,19.9,11.7,30.05,WNW,295,0.0,6.0,70,0.00,,,0.01,70.0,meteohub,2013-02-16 20:22:00,
2013-02-16 15:27:00,19.8,11.8,30.04,WNW,296,4.0,6.0,71,0.00,,,0.01,84.0,meteohub,2013-02-16 20:27:00,
2013-02-16 15:32:00,19.2,11.3,30.04,WNW,299,0.0,6.0,71,0.00,,,0.01,111.0,meteohub,2013-02-16 20:32:00,
2013-02-16 15:37:00,19.2,12.4,30.04,NW,306,5.0,6.0,74,0.00,,,0.01,100.0,meteohub,2013-02-16 20:37:00,
2013-02-16 15:42:00,19.0,12.7,30.05,NW,306,0.0,8.0,76,0.00,,,0.01,81.0,meteohub,2013-02-16 20:42:00,
2013-02-16 15:47:00,18.9,13.5,30.04,NW,306,0.0,8.0,79,0.00,,,0.01,169.0,meteohub,2013-02-16 20:47:00,
2013-02-16 15:52:00,19.0,13.8,30.04,NW,306,0.0,5.0,80,0.00,,,0.01,176.0,meteohub,2013-02-16 20:52:00,
2013-02-16 15:57:00,18.9,13.5,30.04,NW,306,0.0,5.0,79,0.00,,,0.01,160.0,meteohub,2013-02-16 20:57:00,
2013-02-16 16:02:00,18.5,12.7,30.04,NW,306,0.0,0.0,78,0.00,,,0.01,209.0,meteohub,2013-02-16 21:02:00,
2013-02-16 16:07:00,19.0,13.1,30.04,NW,305,0.0,0.0,77,0.00,,,0.01,174.0,meteohub,2013-02-16 21:07:00,
2013-02-16 16:12:00,19.6,12.9,30.04,NW,304,0.0,0.0,75,0.00,,,0.01,503.0,meteohub,2013-02-16 21:12:00,
2013-02-16 16:17:00,20.7,13.6,30.04,NW,305,0.0,0.0,74,0.00,,,0.01,420.0,meteohub,2013-02-16 21:17:00,
2013-02-16 16:22:00,21.7,14.4,30.04,NW,304,0.0,0.0,73,0.00,,,0.01,190.0,meteohub,2013-02-16 21:22:00,
2013-02-16 16:27:00,21.6,13.3,30.04,WNW,287,5.0,0.0,70,0.00,,,0.01,183.0,meteohub,2013-02-16 21:27:00,
2013-02-16 16:32:00,21.6,12.4,30.05,WNW,288,0.0,7.0,67,0.00,,,0.01,146.0,meteohub,2013-02-16 21:32:00,
2013-02-16 16:37:00,21.9,12.4,30.05,WNW,288,0.0,7.0,66,0.00,,,0.01,236.0,meteohub,2013-02-16 21:37:00,
2013-02-16 16:42:00,21.7,12.2,30.05,WNW,290,5.0,7.0,66,0.00,,,0.01,151.0,meteohub,2013-02-16 21:42:00,
2013-02-16 16:47:00,21.6,12.0,30.05,WNW,290,0.0,7.0,66,0.00,,,0.01,260.0,meteohub,2013-02-16 21:47:00,
2013-02-16 16:52:00,21.6,11.7,30.05,WNW,290,0.0,6.0,65,0.00,,,0.01,209.0,meteohub,2013-02-16 21:52:00,
2013-02-16 16:57:00,21.9,11.7,30.06,WNW,291,0.0,6.0,64,0.00,,,0.01,195.0,meteohub,2013-02-16 21:57:00,
2013-02-16 17:02:00,21.6,10.6,30.06,NW,313,4.0,4.0,62,0.00,,,0.01,86.0,meteohub,2013-02-16 22:02:00,
2013-02-16 17:07:00,21.4,10.8,30.06,NW,313,0.0,2.0,63,0.00,,,0.01,216.0,meteohub,2013-02-16 22:07:00,
2013-02-16 17:12:00,21.6,10.6,30.06,WNW,302,2.0,2.0,62,0.00,,,0.01,172.0,meteohub,2013-02-16 22:12:00,
2013-02-16 17:17:00,21.4,10.8,30.06,WNW,284,5.0,8.0,63,0.00,,,0.01,100.0,meteohub,2013-02-16 22:17:00,
2013-02-16 17:22:00,20.8,10.6,30.06,WNW,286,7.0,11.0,64,0.00,,,0.01,76.0,meteohub,2013-02-16 22:22:00,
2013-02-16 17:27:00,20.7,10.8,30.06,WNW,295,6.0,11.0,65,0.00,,,0.01,72.0,meteohub,2013-02-16 22:27:00,
2013-02-16 17:33:00,20.7,11.1,30.06,WNW,294,2.0,11.0,66,0.00,,,0.01,93.0,meteohub,2013-02-16 22:33:00,
2013-02-16 17:38:00,20.7,11.1,30.06,WNW,300,6.0,11.0,66,0.00,,,0.01,132.0,meteohub,2013-02-16 22:38:00,
2013-02-16 17:43:00,20.3,11.1,30.06,WNW,294,2.0,9.0,67,0.00,,,0.01,118.0,meteohub,2013-02-16 22:43:00,
2013-02-16 17:48:00,20.1,10.9,30.07,West,265,3.0,9.0,67,0.00,,,0.01,81.0,meteohub,2013-02-16 22:48:00,
2013-02-16 17:53:00,20.1,10.9,30.07,West,260,7.0,9.0,67,0.00,,,0.01,58.0,meteohub,2013-02-16 22:53:00,
2013-02-16 17:58:00,19.9,10.8,30.07,WSW,252,4.0,9.0,67,0.00,,,0.01,28.0,meteohub,2013-02-16 22:58:00,
2013-02-16 18:03:00,19.8,10.9,30.07,WSW,249,5.0,11.0,68,0.00,,,0.01,16.0,meteohub,2013-02-16 23:03:00,
2013-02-16 18:08:00,19.2,10.8,30.07,WSW,254,2.0,11.0,69,0.00,,,0.01,7.0,meteohub,2013-02-16 23:08:00,
2013-02-16 18:13:00,19.0,10.9,30.08,WNW,301,4.0,8.0,70,0.00,,,0.01,0.0,meteohub,2013-02-16 23:13:00,
2013-02-16 18:18:00,18.7,10.8,30.08,WNW,283,1.0,8.0,71,0.00,,,0.01,0.0,meteohub,2013-02-16 23:18:00,
2013-02-16 18:23:00,18.3,10.8,30.08,WNW,286,5.0,8.0,72,0.00,,,0.01,0.0,meteohub,2013-02-16 23:23:00,
2013-02-16 18:28:00,18.1,10.9,30.09,NW,315,4.0,9.0,73,0.00,,,0.01,0.0,meteohub,2013-02-16 23:28:00,
2013-02-16 18:33:00,18.0,11.1,30.09,NW,304,1.0,9.0,74,0.00,,,0.01,0.0,meteohub,2013-02-16 23:33:00,
2013-02-16 18:38:00,17.6,11.1,30.09,WNW,294,1.0,8.0,75,0.00,,,0.01,0.0,meteohub,2013-02-16 23:38:00,
2013-02-16 18:43:00,17.4,10.9,30.09,WNW,299,1.0,8.0,75,0.00,,,0.01,0.0,meteohub,2013-02-16 23:43:00,
2013-02-16 18:48:00,17.2,10.9,30.09,WNW,299,1.0,8.0,76,0.00,,,0.01,0.0,meteohub,2013-02-16 23:48:00,
2013-02-16 18:53:00,17.1,11.1,30.09,WNW,299,0.0,5.0,77,0.00,,,0.01,0.0,meteohub,2013-02-16 23:53:00,
2013-02-16 18:58:00,17.1,11.1,30.09,WNW,299,0.0,5.0,77,0.00,,,0.01,0.0,meteohub,2013-02-16 23:58:00,
2013-02-16 19:03:00,16.9,11.3,30.09,WNW,299,1.0,4.0,78,0.00,,,0.01,0.0,meteohub,2013-02-17 00:03:00,
2013-02-16 19:08:00,16.7,11.1,30.10,WNW,299,0.0,4.0,78,0.00,,,0.01,0.0,meteohub,2013-02-17 00:08:00,
2013-02-16 19:13:00,16.5,11.1,30.10,WNW,299,1.0,4.0,79,0.00,,,0.01,0.0,meteohub,2013-02-17 00:13:00,
2013-02-16 19:18:00,16.3,10.9,30.10,WNW,299,0.0,4.0,79,0.00,,,0.01,0.0,meteohub,2013-02-17 00:18:00,
2013-02-16 19:23:00,16.2,11.1,30.10,WNW,299,0.0,4.0,80,0.00,,,0.01,0.0,meteohub,2013-02-17 00:23:00,
2013-02-16 19:28:00,16.2,11.1,30.10,WNW,299,0.0,4.0,80,0.00,,,0.01,0.0,meteohub,2013-02-17 00:28:00,
2013-02-16 19:33:00,15.8,10.8,30.10,WNW,299,0.0,2.0,80,0.00,,,0.01,0.0,meteohub,2013-02-17 00:33:00,
2013-02-16 19:38:00,15.4,10.4,30.10,WNW,299,0.0,2.0,80,0.00,,,0.01,0.0,meteohub,2013-02-17 00:38:00,
2013-02-16 19:43:00,15.4,10.6,30.10,WNW,299,4.0,4.0,81,0.00,,,0.01,0.0,meteohub,2013-02-17 00:43:00,
2013-02-16 19:48:00,15.3,10.8,30.10,WNW,299,4.0,4.0,82,0.00,,,0.01,0.0,meteohub,2013-02-17 00:48:00,
2013-02-16 19:53:00,15.3,10.8,30.11,WNW,300,0.0,5.0,82,0.00,,,0.01,0.0,meteohub,2013-02-17 00:53:00,
2013-02-16 19:58:00,15.1,10.6,30.11,WNW,299,0.0,5.0,82,0.00,,,0.01,0.0,meteohub,2013-02-17 00:58:00,
2013-02-16 20:04:00,14.9,10.8,30.10,WNW,300,0.0,5.0,83,0.00,,,0.01,0.0,meteohub,2013-02-17 01:04:00,
2013-02-16 20:09:00,14.7,10.6,30.11,WNW,299,0.0,5.0,83,0.00,,,0.01,0.0,meteohub,2013-02-17 01:09:00,
2013-02-16 20:14:00,14.5,10.4,30.11,WNW,300,0.0,1.0,83,0.00,,,0.01,0.0,meteohub,2013-02-17 01:14:00,
2013-02-16 20:18:00,14.5,10.4,30.11,WNW,299,0.0,4.0,83,0.00,,,0.01,0.0,meteohub,2013-02-17 01:18:00,
2013-02-16 20:24:00,14.4,10.4,30.11,WNW,300,0.0,4.0,84,0.00,,,0.01,0.0,meteohub,2013-02-17 01:24:00,
2013-02-16 20:29:00,14.4,10.4,30.11,WNW,300,0.0,4.0,84,0.00,,,0.01,0.0,meteohub,2013-02-17 01:29:00,
2013-02-16 20:34:00,14.4,10.4,30.11,WNW,299,0.0,4.0,84,0.00,,,0.01,0.0,meteohub,2013-02-17 01:34:00,
2013-02-16 20:39:00,14.2,10.2,30.11,WNW,300,0.0,4.0,84,0.00,,,0.01,0.0,meteohub,2013-02-17 01:39:00,
2013-02-16 20:44:00,14.0,10.0,30.11,WNW,300,0.0,1.0,84,0.00,,,0.01,0.0,meteohub,2013-02-17 01:44:00,
2013-02-16 20:49:00,13.8,9.9,30.11,WNW,299,0.0,1.0,84,0.00,,,0.01,0.0,meteohub,2013-02-17 01:49:00,
2013-02-16 20:54:00,13.8,9.9,30.11,WNW,299,0.0,0.0,84,0.00,,,0.01,0.0,meteohub,2013-02-17 01:54:00,
2013-02-16 20:59:00,13.6,9.7,30.10,WNW,300,0.0,0.0,84,0.00,,,0.01,0.0,meteohub,2013-02-17 01:59:00,
2013-02-16 21:04:00,13.5,9.5,30.11,WNW,299,0.0,0.0,84,0.00,,,0.01,0.0,meteohub,2013-02-17 02:04:00,
2013-02-16 21:09:00,13.5,9.5,30.11,WNW,300,0.0,0.0,84,0.00,,,0.01,0.0,meteohub,2013-02-17 02:09:00,
2013-02-16 21:14:00,13.5,9.9,30.11,WNW,299,0.0,0.0,85,0.00,,,0.01,0.0,meteohub,2013-02-17 02:14:00,
2013-02-16 21:19:00,13.3,9.7,30.11,WNW,300,0.0,0.0,85,0.00,,,0.01,0.0,meteohub,2013-02-17 02:19:00,
2013-02-16 21:24:00,13.3,9.7,30.11,WNW,300,0.0,0.0,85,0.00,,,0.01,0.0,meteohub,2013-02-17 02:24:00,
2013-02-16 21:29:00,13.1,9.1,30.12,WNW,299,0.0,0.0,84,0.00,,,0.01,0.0,meteohub,2013-02-17 02:29:00,
2013-02-16 21:34:00,12.9,9.0,30.11,WNW,300,0.0,0.0,84,0.00,,,0.01,0.0,meteohub,2013-02-17 02:34:00,
2013-02-16 21:39:00,12.9,9.3,30.12,WNW,299,0.0,0.0,85,0.00,,,0.01,0.0,meteohub,2013-02-17 02:39:00,
2013-02-16 21:44:00,12.7,9.1,30.12,WNW,300,0.0,0.0,85,0.00,,,0.01,0.0,meteohub,2013-02-17 02:44:00,
2013-02-16 21:49:00,12.7,9.1,30.12,WNW,300,0.0,0.0,85,0.00,,,0.01,0.0,meteohub,2013-02-17 02:49:00,
2013-02-16 21:54:00,12.7,9.1,30.12,WNW,300,0.0,0.0,85,0.00,,,0.01,0.0,meteohub,2013-02-17 02:54:00,
2013-02-16 21:59:00,12.9,9.5,30.12,WNW,300,0.0,0.0,86,0.00,,,0.01,0.0,meteohub,2013-02-17 02:59:00,
2013-02-16 22:05:00,12.9,9.5,30.12,WNW,300,0.0,0.0,86,0.00,,,0.01,0.0,meteohub,2013-02-17 03:05:00,
2013-02-16 22:10:00,12.9,9.5,30.12,WNW,300,0.0,0.0,86,0.00,,,0.01,0.0,meteohub,2013-02-17 03:10:00,
2013-02-16 22:15:00,12.9,9.5,30.12,WNW,300,0.0,0.0,86,0.00,,,0.01,0.0,meteohub,2013-02-17 03:15:00,
2013-02-16 22:20:00,13.3,9.9,30.13,WNW,300,0.0,0.0,86,0.00,,,0.01,0.0,meteohub,2013-02-17 03:20:00,
2013-02-16 22:25:00,13.3,10.2,30.12,WNW,299,0.0,0.0,87,0.00,,,0.01,0.0,meteohub,2013-02-17 03:25:00,
2013-02-16 22:30:00,13.3,10.2,30.12,WNW,300,0.0,0.0,87,0.00,,,0.01,0.0,meteohub,2013-02-17 03:30:00,
2013-02-16 22:35:00,13.3,9.9,30.13,WNW,300,0.0,0.0,86,0.00,,,0.01,0.0,meteohub,2013-02-17 03:35:00,
2013-02-16 22:40:00,12.9,9.5,30.13,WNW,299,0.0,0.0,86,0.00,,,0.01,0.0,meteohub,2013-02-17 03:40:00,
2013-02-16 22:45:00,12.7,9.3,30.13,WNW,299,0.0,0.0,86,0.00,,,0.01,0.0,meteohub,2013-02-17 03:45:00,
2013-02-16 22:50:00,12.6,9.1,30.13,WNW,300,0.0,0.0,86,0.00,,,0.01,0.0,meteohub,2013-02-17 03:50:00,
2013-02-16 22:55:00,12.6,9.0,30.13,WNW,299,0.0,0.0,85,0.00,,,0.01,0.0,meteohub,2013-02-17 03:55:00,
2013-02-16 23:00:00,12.4,8.8,30.13,WNW,300,0.0,0.0,85,0.00,,,0.01,0.0,meteohub,2013-02-17 04:00:00,
2013-02-16 23:05:00,12.0,8.1,30.13,WNW,300,0.0,0.0,84,0.00,,,0.01,0.0,meteohub,2013-02-17 04:05:00,
2013-02-16 23:10:00,11.8,7.9,30.13,WNW,300,0.0,0.0,84,0.00,,,0.01,0.0,meteohub,2013-02-17 04:10:00,
2013-02-16 23:15:00,11.7,7.7,30.13,WNW,299,0.0,0.0,84,0.00,,,0.01,0.0,meteohub,2013-02-17 04:15:00,
2013-02-16 23:20:00,11.5,7.5,30.13,WNW,299,0.0,0.0,84,0.00,,,0.01,0.0,meteohub,2013-02-17 04:20:00,
2013-02-16 23:25:00,11.3,7.3,30.13,WNW,300,0.0,0.0,84,0.00,,,0.01,0.0,meteohub,2013-02-17 04:25:00,
2013-02-16 23:30:00,11.1,7.2,30.14,WNW,299,0.0,0.0,84,0.00,,,0.01,0.0,meteohub,2013-02-17 04:30:00,
2013-02-16 23:35:00,10.9,6.8,30.13,WNW,300,0.0,0.0,83,0.00,,,0.01,0.0,meteohub,2013-02-17 04:35:00,
2013-02-16 23:40:00,10.8,6.6,30.13,WNW,299,0.0,0.0,83,0.00,,,0.01,0.0,meteohub,2013-02-17 04:40:00,
2013-02-16 23:45:00,10.6,6.4,30.13,WNW,300,0.0,1.0,83,0.00,,,0.01,0.0,meteohub,2013-02-17 04:45:00,
2013-02-16 23:50:00,10.4,6.3,30.13,WNW,300,0.0,1.0,83,0.00,,,0.01,0.0,meteohub,2013-02-17 04:50:00,
2013-02-16 23:55:00,10.2,6.1,30.13,WNW,300,0.0,1.0,83,0.00,,,0.01,0.0,meteohub,2013-02-17 04:55:00,